Ardmore, OK

12:18 PM CDT on July 28, 2016 (GMT -0500)
Ardmore Downtown

Weather History for K1F0 - December, 2013

Change the Weather History Date:

Friday, December 6, 2013

  Actual Average (KADM) Record (KADM)
Temperature  
Mean Temperature 24 °F -  
Max Temperature 26 °F 55 °F 71 °F (1998)
Min Temperature 23 °F 36 °F 18 °F (2013)
Degree Days  
Heating Degree Days 40    
Moisture  
Dew Point 19 °F    
Average Humidity 84    
Maximum Humidity 93    
Minimum Humidity 63    
Precipitation  
Precipitation 0.19 in - - ()
Sea Level Pressure  
Sea Level Pressure 30.28 in    
Wind  
Wind Speed 5 mph (NNE)    
Max Wind Speed 13 mph    
Max Gust Speed 21 mph    
Visibility 6 miles    
Events Snow    
Averages and records for this station are not official NWS values.
T = Trace of Precipitation, MM = Missing Value Source: NWS Daily Summary

Daily Weather History Graph

Daily Weather History Graph

Search for Another Location

Airport or City:

Trip Planner

Search our weather history database for the weather conditions in past years. The results will help you decide how hot, cold, wet, or windy it might be!

Date:

Astronomy

Dec. 06, 2013 Rise Set
Actual Time 7:20 AM CST 5:18 PM CST
Civil Twilight 6:52 AM CST 5:46 PM CST
Nautical Twilight 6:21 AM CST 6:17 PM CST
Astronomical Twilight 5:51 AM CST 6:47 PM CST
Moon 10:33 AM CST (12/6) 9:44 PM CST (12/6)
Length of Visible Light 10h 53m
Length of Day
9h 58m
Waxing Crescent, 19% of the Moon is Illuminated
Dec 6
Waxing Crescent
Dec 9
First Quarter
Dec 17
Full
Dec 25
Last Quarter
Jan 1
New

Hourly Weather History & Observations

Time (CST) Temp. Windchill Dew Point Humidity Pressure Visibility Wind Dir Wind Speed Gust Speed Precip Events Conditions
12:15 AM 23.0 °F 13.1 °F 21.2 °F 93% 30.21 in 5.0 mi NNE 9.2 mph - N/A   Overcast
12:35 AM 23.0 °F - 21.2 °F 93% 30.19 in 3.0 mi Calm Calm - 0.01 in Snow Light Snow
12:55 AM 23.0 °F 17.0 °F 21.2 °F 93% 30.20 in 2.5 mi North 4.6 mph - 0.02 in Snow Light Snow
1:15 AM 23.0 °F 18.4 °F 21.2 °F 93% 30.19 in 3.0 mi NNE 3.5 mph 16.1 mph 0.01 in Snow Light Snow
1:35 AM 23.0 °F 13.9 °F 21.2 °F 93% 30.21 in 2.5 mi NNE 8.1 mph - 0.02 in Snow Light Snow
1:55 AM 23.0 °F - 21.2 °F 93% 30.21 in 3.0 mi Calm Calm - 0.04 in Snow Light Snow
2:15 AM 23.0 °F - 21.2 °F 93% 30.20 in 3.0 mi Calm Calm - 0.01 in Snow Light Snow
2:35 AM 23.0 °F 12.4 °F 21.2 °F 93% 30.19 in 5.0 mi NNE 10.4 mph 16.1 mph 0.03 in Snow Light Snow
2:55 AM 23.0 °F 15.8 °F 21.2 °F 93% 30.19 in 5.0 mi NNE 5.8 mph 17.3 mph 0.03 in Snow Light Snow
3:15 AM 23.0 °F 13.1 °F 21.2 °F 93% 30.19 in 10.0 mi NNE 9.2 mph - 0.01 in   Overcast
3:35 AM 23.0 °F 12.4 °F 19.4 °F 86% 30.21 in 4.0 mi North 10.4 mph 17.3 mph 0.01 in Snow Light Snow
3:55 AM 23.0 °F 17.0 °F 19.4 °F 86% 30.24 in 3.0 mi North 4.6 mph 17.3 mph 0.02 in Snow Light Snow
4:15 AM 23.0 °F 11.1 °F 19.4 °F 86% 30.22 in 2.5 mi NNE 12.7 mph 19.6 mph 0.02 in Snow Light Snow
4:35 AM 23.0 °F 14.7 °F 19.4 °F 86% 30.24 in 3.0 mi North 6.9 mph - 0.04 in Snow Light Snow
5:35 AM 23.0 °F 11.7 °F 19.4 °F 86% 30.23 in 4.0 mi NNE 11.5 mph 20.7 mph 0.03 in Snow Light Snow
5:55 AM 23.0 °F 13.9 °F 19.4 °F 86% 30.23 in 7.0 mi NNE 8.1 mph 19.6 mph 0.04 in   Overcast
10:15 AM 23.0 °F 17.0 °F 17.6 °F 80% 30.37 in 10.0 mi NNE 4.6 mph - N/A   Overcast
10:35 AM 23.0 °F 15.8 °F 17.6 °F 80% 30.37 in 10.0 mi North 5.8 mph - N/A   Overcast
5:15 PM 26.6 °F - 17.6 °F 69% 30.42 in 10.0 mi Calm Calm - N/A   Overcast
6:55 PM 24.8 °F - 14.0 °F 64% 30.47 in 10.0 mi Calm Calm - N/A   Clear
7:15 PM 23.0 °F - 14.0 °F 68% 30.47 in 10.0 mi Calm Calm - N/A   Clear
8:35 PM 23.0 °F - 14.0 °F 68% 30.50 in 10.0 mi Calm Calm - N/A   Clear
8:55 PM 23.0 °F - 12.2 °F 63% 30.50 in 10.0 mi Calm Calm - N/A   Clear